COSMOS 1275 DEB, 42145

Orbit data source: Space-Track

COSMOS 1275 DEB, 42145 is space debris in LEO originally from a launch on Thu, 04 Jun 1981 UTC launched from the Plesetsk Missile And Space Complex (PKMTR). Debris objects in space refer to the collection of defunct objects orbiting the Earth. Examples of debris include non-operational satellites, rocket bodies, and fragments generated from explosions, collisions, or faulty payload assembly.

Loading next visibility...
Identifier
42145, 1981-053RH
Orbit
LEO
Country
Flag of CISCIS
Related business
Manufacturer
Unknown
Mission
Spacecraft
Bus & Motor
Unknown
Mass
Unknown
Launch date (UTC)
1981-06-04 (44 years ago)
Launch vehicle
Unknown
Launch site
Plesetsk Missile And Space Complex (PKMTR)
Object type
Payload
Rocket body
Debris
Shape & HBR
Unknown shape, 0.1 m
Radar Cross Section
Small (<0.1 m²)

Expand to show TLE details & history
Last TLE update: 4 days ago

TLE from 4 days ago
0 COSMOS 1275 DEB
1 42145U 81053RH  25292.80848443  .00055305  00000-0  53580-2 0  9993
2 42145  83.3499 316.3094 0011639 103.4722 256.7798 14.92397439627920
Epoch: 2025-10-19T19:24Z
TLE epoch observation values (Epoch: 2025-10-19T19:24:13.054Z)
Latitude
-0.00003°
Longitude
-3.26483°
Altitude
595.4 km
Speed
7.561 km/s
True Right ascension
21h 05m 14s
True Declination
0° 00' 00"
Sunlit
Object was in daylight at epoch
Visualization orbit readout
Latitude
Unknown
Longitude
Unknown
Altitude
Unknown
Speed
Unknown
Apparent Right ascension
Unknown
Apparent Declination
Unknown
Sunlit
N/A
Visualization observer readout
Local Sidereal Time
08:50:26
Azimuth
Unknown
Elevation
Unknown
Doppler factor
Unknown
Orbital elements
Apogee altitude
595.542 km
Perigee altitude
579.328 km
Semi-major axis
6,965.572 km
Eccentricity
0.00116
Inclination
83.3499°
RAAN
316.3094°
Arg. of periapsis
103.4722°
True anomaly
256.65°
Mean anomaly
256.7798°
Eccentric anomaly
256.7149°
Mean motion
3.73343 °/min
Orbital period
96.43 mins
BSTAR
0.005358
Loading maneuver chart data...
Computing Atmospheric mass density...

Documentation

Showing up to 5 results
|